[[{"header":{"parameterUnit":"m.s-1","parameterCategory":1,"la1":30.2991,"la2":30.254,"lo1":-89.0895,"lo2":-89.0444,"dy":0.0017,"dx":0.0017,"nx":28,"ny":28,"refTime":"2025-04-28T03:00:00:Z","depth":0,"parameterNumber":2,"parameterNumberName":"U-component_of_WINDS"},"data":[0,0,0,0,0,0,0,0,0,0,0,0,0,0,0,0,0,0,0,0,0,0,0,0,0,0,0,0,0,0,0,0,0,0,0,0,0,0,0,0,0,0,0,0,0,0,0,0,0,0,0,0,0,0,0,0,0,0,-1.6892,-1.6891,0,-1.6802,-1.6801,-1.68,-1.6702,-1.6701,-1.6699,-1.6698,-1.6606,-1.6605,-1.6604,0,0,0,0,0,0,0,0,0,0,0,0,0,-1.6982,-1.6981,-1.6893,-1.6891,-1.689,-1.6802,-1.6801,-1.68,-1.6702,-1.6701,-1.6699,-1.6697,-1.6607,-1.6605,-1.6604,0,0,0,0,0,0,0,0,0,0,0,0,0,-1.6923,-1.6981,-1.6893,-1.6831,-1.6824,-1.6803,-1.6801,-1.68,-1.6703,-1.6701,-1.6698,-1.6696,-1.6607,-1.6605,-1.6604,-1.6636,0,0,-1.6598,-1.6598,0,0,0,0,0,0,0,0,-1.6926,-1.692,-1.6841,-1.6835,-1.6828,-1.6761,-1.6799,-1.6745,-1.6703,-1.6749,-1.6698,-1.6695,-1.666,-1.6653,-1.6641,-1.6631,-1.6627,-1.6598,-1.6597,-1.6597,-1.6596,0,0,0,0,0,0,0,-1.693,-1.6923,-1.6857,-1.684,-1.6832,-1.6808,-1.6798,-1.6788,-1.6717,-1.6745,-1.6737,-1.6728,-1.6655,-1.6643,-1.6638,-1.6626,-1.6598,-1.6597,-1.6596,-1.6595,-1.664,-1.6642,0,0,0,0,0,0,-1.6944,-1.6927,-1.686,-1.6854,-1.6873,-1.6808,-1.6796,-1.6785,-1.6717,-1.6705,-1.673,-1.6724,-1.6647,-1.664,-1.6635,-1.6669,-1.6597,-1.6595,-1.6594,-1.6638,-1.664,-1.6643,0,0,0,0,0,0,-1.6946,-1.6939,-1.6863,-1.6888,-1.6877,-1.6809,-1.6797,-1.6784,-1.6771,-1.6706,-1.6693,-1.673,-1.6645,-1.6637,-1.6636,-1.6664,-1.6594,-1.6593,-1.6635,-1.6638,-1.6641,-1.6737,0,0,0,0,0,0,-1.6949,-1.694,-1.6951,-1.6889,-1.6876,-1.6866,-1.6798,-1.6784,-1.6769,-1.676,-1.6703,-1.6691,-1.6643,-1.664,-1.6635,-1.6661,-1.6591,-1.6632,-1.6636,-1.664,-1.6731,-1.6743,-1.6753,0,0,0,0,0,-1.6953,-1.6981,-1.6952,-1.6944,-1.6888,-1.6868,-1.686,-1.6804,-1.6771,-1.6782,-1.674,-1.6693,-1.6662,-1.664,-1.6634,-1.666,-1.663,-1.6635,-1.664,-1.6726,-1.6741,-1.6753,0,0,0,0,0,0,-1.7048,-1.6972,-1.6939,-1.6948,-1.6916,-1.6852,-1.6863,-1.6821,-1.6797,-1.679,-1.6721,-1.6709,-1.6717,-1.6688,-1.6665,-1.6688,-1.6639,-1.6643,-1.6707,-1.672,-1.6731,-1.6738,-1.659,0,0,0,0,0,-1.707,-1.7059,-1.6994,-1.7009,-1.6994,-1.6932,-1.6921,-1.6881,-1.6844,-1.6829,-1.6787,-1.6754,-1.6737,-1.6727,-1.6707,-1.6726,-1.6713,-1.6741,-1.6752,-1.6762,-1.6766,-1.6776,-1.6788,-1.6659,-1.6659,-1.6659,0,0,-1.7116,-1.7073,-1.707,-1.7027,-1.6996,-1.6988,-1.6921,-1.6914,-1.6908,-1.6828,-1.6826,-1.6794,-1.6752,-1.6762,-1.6764,-1.6738,-1.6799,-1.6768,-1.6776,-1.6775,-1.6782,-1.6795,-1.6806,-1.6662,-1.6662,-1.6661,0,0,-1.7194,-1.7161,-1.717,-1.7141,-1.7096,-1.7055,-1.7058,-1.7,-1.6976,-1.6972,-1.6913,-1.6905,-1.6876,-1.6849,-1.6832,-1.6903,-1.6859,-1.6898,-1.6957,-1.6967,-1.6978,-1.6986,-1.7013,-1.7023,-1.6903,-1.6903,-1.6903,0,-1.7257,-1.7241,-1.718,-1.7178,-1.7161,-1.7089,-1.7099,-1.7074,-1.7025,-1.7016,-1.6987,-1.6951,-1.6917,-1.6921,-1.6939,-1.6926,-1.6928,-1.6904,-1.6981,-1.6989,-1.6996,-1.7021,-1.7031,-1.6908,-1.6907,-1.6907,-1.6906,0,-1.7321,-1.7311,-1.7324,-1.7279,-1.7264,-1.7268,-1.7208,-1.72,-1.7161,-1.7124,-1.7122,-1.7079,-1.7051,-1.7048,-1.701,-1.7047,-1.7032,-1.6993,-1.6943,-1.7015,-1.7037,-1.7046,-1.6915,-1.6914,-1.6912,-1.6911,0,0,-1.7457,-1.7379,-1.7385,-1.7365,-1.7311,-1.7302,-1.7303,-1.7275,-1.727,-1.724,-1.724,-1.7218,-1.7182,-1.7162,-1.7121,-1.713,-1.7191,-1.7089,-1.7087,-1.7111,-1.7231,-1.7261,-1.7273,-1.7161,-1.7162,-1.7163,-1.7235,0,-1.7527,-1.7524,-1.747,-1.7483,-1.7474,-1.7406,-1.7407,-1.7375,-1.734,-1.7328,-1.7289,-1.7276,-1.7228,-1.7216,-1.7222,-1.7182,-1.7214,-1.7176,-1.7161,-1.7162,-1.7175,-1.7284,-1.7316,-1.7385,-1.7243,-1.7244,-1.7245,0,-1.7609,-1.7583,-1.7596,-1.7542,-1.7537,-1.7539,-1.751,-1.7498,-1.7461,-1.7435,-1.7414,-1.7367,-1.7366,-1.7318,-1.7316,-1.7291,-1.7282,-1.7262,-1.7263,-1.726,-1.7208,-1.7286,-1.7406,-1.7417,-1.7258,-1.7257,-1.7256,0,-1.7709,-1.7678,-1.7681,-1.7665,-1.7603,-1.7606,-1.7581,-1.7541,-1.7528,-1.7503,-1.7494,-1.7469,-1.7456,-1.7438,-1.7386,-1.7356,-1.7391,-1.7338,-1.737,-1.7372,-1.7381,-1.7381,-1.7502,-1.7374,-1.7373,-1.7373,-1.7373,0,-1.7794,-1.7804,-1.7725,-1.7728,-1.7738,-1.7676,-1.7688,-1.7656,-1.7621,-1.7617,-1.7556,-1.7554,-1.7485,-1.7475,-1.7434,-1.744,-1.7434,-1.7413,-1.7403,-1.7419,-1.7422,-1.7413,-1.7408,-1.7376,-1.7375,-1.7375,-1.7374,0,-1.7907,-1.7855,-1.7854,-1.7796,-1.7781,-1.7792,-1.7742,-1.7742,-1.7704,-1.7699,-1.7695,-1.7635,-1.762,-1.7566,-1.7538,-1.7511,-1.753,-1.7508,-1.7543,-1.7536,-1.7572,-1.757,-1.7692,-1.7706,-1.7568,-1.7569,-1.757,0,-1.7966,-1.7972,-1.7915,-1.7907,-1.7884,-1.7873,-1.786,-1.78,-1.7789,-1.7747,-1.7753,-1.7733,-1.7715,-1.7694,-1.7649,-1.7628,-1.7606,-1.765,-1.7602,-1.7619,-1.7608,-1.7609,-1.761,-1.7661,-1.7663,-1.7664,-1.7665,0,-1.8075,-1.8049,-1.8032,-1.8007,-1.7993,-1.797,-1.7944,-1.7941,-1.7874,-1.7865,-1.7849,-1.7835,-1.7807,-1.7789,-1.776,-1.7734,-1.769,-1.7681,-1.7687,-1.7705,-1.7726,-1.7717,-1.7573,-1.7678,-1.7677,-1.7676,-1.7675,-1.7675,-1.8163,-1.8167,-1.8127,-1.8111,-1.8085,-1.8062,-1.806,-1.8022,-1.8007,-1.798,-1.7945,-1.7934,-1.7897,-1.7855,-1.7832,-1.7824,-1.7799,-1.7808,-1.781,-1.7814,-1.7823,-1.7726,-1.7818,-1.7818,-1.7817,-1.7817,-1.7816,0,-1.8271,-1.8243,-1.8228,-1.8193,-1.8181,-1.8139,-1.8109,-1.8101,-1.8092,-1.8062,-1.8045,-1.8028,-1.801,-1.7964,-1.7942,-1.7944,-1.7923,-1.7941,-1.794,-1.7936,-1.7845,-1.7843,-1.7958,-1.7958,-1.7958,-1.7958,-1.7958,-1.7958,-1.8326,-1.833,-1.8299,-1.829,-1.8261,-1.825,-1.8236,-1.8215,-1.8191,-1.8175,-1.816,-1.8129,-1.8093,-1.8068,-1.8051,-1.8038,-1.8033,-1.8058,-1.8038,-1.7955,-1.7942,-1.7929,-1.7926,-1.8057,-1.8057,-1.8129,-1.813,-1.813]},{"header":{"parameterUnit":"m.s-1","parameterCategory":1,"la1":30.2991,"la2":30.254,"lo1":-89.0895,"lo2":-89.0444,"dy":0.0017,"dx":0.0017,"nx":28,"ny":28,"refTime":"2025-04-28T03:00:00:Z","depth":0,"parameterNumber":3,"parameterNumberName":"V-component_of_WINDS"},"data":[0,0,0,0,0,0,0,0,0,0,0,0,0,0,0,0,0,0,0,0,0,0,0,0,0,0,0,0,0,0,0,0,0,0,0,0,0,0,0,0,0,0,0,0,0,0,0,0,0,0,0,0,0,0,0,0,0,0,4.5127,4.5127,0,4.5085,4.5085,4.5084,4.5073,4.5073,4.5073,4.5073,4.5024,4.5023,4.5021,0,0,0,0,0,0,0,0,0,0,0,0,0,4.5193,4.5192,4.5127,4.5127,4.5126,4.5086,4.5085,4.5084,4.5073,4.5073,4.5073,4.5074,4.5025,4.5023,4.5021,0,0,0,0,0,0,0,0,0,0,0,0,0,4.5159,4.5192,4.5128,4.5116,4.5114,4.5086,4.5085,4.5084,4.5073,4.5073,4.5073,4.5074,4.5026,4.5023,4.5021,4.4999,0,0,4.5014,4.5013,0,0,0,0,0,0,0,0,4.5161,4.5157,4.5118,4.5117,4.5115,4.5085,4.509,4.5055,4.5072,4.5088,4.5073,4.5074,4.5044,4.504,4.5031,4.4997,4.4995,4.5014,4.5012,4.5011,4.5011,0,0,0,0,0,0,0,4.5163,4.5158,4.5111,4.5117,4.5116,4.5111,4.5107,4.5083,4.5064,4.5087,4.5086,4.5081,4.5043,4.5033,4.503,4.4994,4.5014,4.5012,4.501,4.5009,4.4941,4.494,0,0,0,0,0,0,4.5168,4.516,4.5112,4.5109,4.514,4.511,4.5105,4.5094,4.5064,4.506,4.5081,4.5081,4.5037,4.5033,4.5028,4.5001,4.5011,4.5009,4.5008,4.4941,4.4941,4.494,0,0,0,0,0,0,4.517,4.5164,4.5114,4.5135,4.5128,4.5108,4.5096,4.5093,4.5083,4.506,4.5056,4.5075,4.5037,4.5031,4.5007,4.4999,4.5008,4.5006,4.4942,4.4941,4.494,4.4947,0,0,0,0,0,0,4.5172,4.5165,4.5157,4.5135,4.5127,4.5095,4.5096,4.5092,4.508,4.508,4.5054,4.505,4.5037,4.5011,4.5005,4.4996,4.5004,4.4942,4.4941,4.494,4.4947,4.4947,4.4946,0,0,0,0,0,4.5174,4.5159,4.5157,4.5151,4.5117,4.5094,4.509,4.5077,4.508,4.5071,4.5057,4.505,4.5001,4.5008,4.5002,4.4992,4.4943,4.4942,4.4941,4.4948,4.4947,4.4946,0,0,0,0,0,0,4.5179,4.5156,4.5153,4.5131,4.5115,4.5092,4.5081,4.5077,4.5058,4.5058,4.5042,4.5036,4.5013,4.5,4.5008,4.497,4.4972,4.4969,4.4979,4.4978,4.4978,4.4981,4.5002,0,0,0,0,0,4.5178,4.5163,4.5143,4.5125,4.5117,4.5101,4.509,4.5083,4.5065,4.5057,4.5041,4.5022,4.5002,4.499,4.497,4.4946,4.494,4.4936,4.4935,4.4935,4.4933,4.4919,4.4918,4.4937,4.4937,4.4937,0,0,4.5174,4.516,4.5151,4.5126,4.5112,4.5096,4.5095,4.5077,4.5065,4.5054,4.5031,4.5018,4.4996,4.4972,4.496,4.496,4.4927,4.4934,4.4934,4.4932,4.4918,4.4917,4.4915,4.4936,4.4936,4.4936,0,0,4.516,4.5148,4.5132,4.512,4.5101,4.509,4.5087,4.5065,4.5057,4.5034,4.5026,4.501,4.4976,4.4962,4.4949,4.4932,4.4925,4.4926,4.4922,4.4909,4.4907,4.4906,4.49,4.4898,4.4924,4.4924,4.4924,0,4.5158,4.5134,4.5124,4.5108,4.5097,4.5089,4.5072,4.506,4.5034,4.5026,4.5028,4.4987,4.4971,4.4944,4.494,4.493,4.4925,4.4928,4.4909,4.4907,4.4906,4.49,4.4897,4.4924,4.4924,4.4924,4.4924,0,4.5132,4.5116,4.5106,4.5084,4.5072,4.5055,4.5042,4.503,4.5024,4.5013,4.499,4.4972,4.4949,4.4942,4.4934,4.4914,4.4914,4.4912,4.4914,4.4904,4.4898,4.4896,4.4924,4.4924,4.4924,4.4924,0,0,4.5118,4.5094,4.509,4.508,4.506,4.5046,4.5029,4.501,4.5,4.4983,4.4968,4.4941,4.494,4.4926,4.4917,4.4906,4.4893,4.4905,4.4904,4.4904,4.487,4.4871,4.4869,4.489,4.4889,4.4889,4.4872,0,4.5101,4.5073,4.5064,4.504,4.5025,4.5018,4.5003,4.4988,4.4978,4.4962,4.495,4.4931,4.4931,4.4923,4.4912,4.4897,4.4886,4.4899,4.4874,4.4873,4.488,4.4866,4.4867,4.4852,4.4869,4.4869,4.4868,0,4.5077,4.5063,4.5038,4.5021,4.5014,4.5001,4.4983,4.4968,4.4951,4.4944,4.4931,4.4923,4.4904,4.4907,4.4881,4.4889,4.4879,4.487,4.4869,4.4866,4.487,4.4862,4.4846,4.4844,4.4865,4.4865,4.4865,0,4.507,4.5044,4.5026,4.5018,4.4997,4.4988,4.4979,4.4962,4.4952,4.4935,4.4928,4.4908,4.4898,4.4882,4.4869,4.4873,4.4844,4.4846,4.4837,4.4837,4.483,4.4831,4.4813,4.4824,4.4824,4.4824,4.4824,0,4.5051,4.5036,4.5023,4.5011,4.4994,4.4984,4.4967,4.4956,4.4942,4.4928,4.492,4.4907,4.4891,4.4875,4.4864,4.4844,4.4839,4.4832,4.483,4.4833,4.4834,4.4825,4.4826,4.4824,4.4824,4.4824,4.4824,0,4.504,4.503,4.501,4.4993,4.4988,4.4976,4.4961,4.4949,4.494,4.4922,4.4917,4.4901,4.4882,4.4868,4.4843,4.4836,4.4814,4.4812,4.4821,4.4819,4.4811,4.4812,4.4787,4.4783,4.4797,4.4797,4.4797,0,4.5029,4.5017,4.5,4.4991,4.4983,4.4968,4.4958,4.4947,4.4936,4.4917,4.4908,4.4889,4.4873,4.4843,4.4828,4.4809,4.4806,4.4798,4.4803,4.4807,4.4806,4.4807,4.4805,4.4797,4.4797,4.4797,4.4797,0,4.501,4.5006,4.4993,4.4978,4.4967,4.4954,4.494,4.4933,4.492,4.4908,4.4891,4.4879,4.4855,4.4836,4.4816,4.4804,4.4798,4.4796,4.4793,4.4796,4.4802,4.4799,4.4819,4.4797,4.4797,4.4797,4.4797,4.4797,4.4998,4.4988,4.4975,4.496,4.495,4.4939,4.4927,4.4917,4.4903,4.4884,4.4878,4.486,4.4843,4.4816,4.4805,4.4789,4.4789,4.4785,4.4783,4.4782,4.4783,4.4806,4.4785,4.4785,4.4785,4.4785,4.4785,0,4.4979,4.4971,4.4958,4.4941,4.493,4.4928,4.4914,4.4904,4.4888,4.4875,4.486,4.484,4.4822,4.4807,4.4788,4.4779,4.4775,4.4774,4.4774,4.4772,4.4784,4.4788,4.4777,4.4777,4.4777,4.4777,4.4777,4.4777,4.4968,4.4951,4.4946,4.4925,4.4916,4.49,4.4892,4.4881,4.487,4.4849,4.4835,4.4826,4.4811,4.4792,4.4775,4.4771,4.4764,4.4764,4.4759,4.477,4.4771,4.4772,4.4776,4.4762,4.4762,4.4748,4.4748,4.4748]}]]